• In Hungary
  • List of Countries
  • For 7 days
  • Water Temperature
  • Satellite Maps
  • Weather Map
  • News
  • Weather Widgets
  • user-avatar
    Login

    Hourly Weather Jaloyir

    Today, 20 October, Saturday

    Time Temperature Precipitation Wind Pressure Humidity
    00:00 +11°C° 0 mm 1 mps 736 mmHg 38%
    01:00 +10°C° 0 mm 1 mps 736 mmHg 38%
    02:00 +10°C° 0 mm 1 mps 736 mmHg 39%
    03:00 +10°C° 0 mm 1 mps 736 mmHg 39%
    04:00 +10°C° 0 mm 1 mps 736 mmHg 40%
    05:00 +9°C° 0 mm 1 mps 736 mmHg 42%
    06:00 +10°C° 0 mm 1 mps 736 mmHg 41%
    07:00 +11°C° 0 mm 1 mps 736 mmHg 39%
    08:00 +11°C° 0 mm 1 mps 736 mmHg 38%
    09:00 +13°C° 0 mm 1 mps 735 mmHg 35%
    10:00 +14°C° 0 mm 1 mps 735 mmHg 32%
    11:00 +15°C° 0 mm 2 mps 735 mmHg 29%
    12:00 +16°C° 0 mm 2 mps 735 mmHg 28%
    13:00 +17°C° 0 mm 2 mps 735 mmHg 27%
    14:00 +18°C° 0 mm 2 mps 735 mmHg 26%
    15:00 +17°C° 0 mm 2 mps 735 mmHg 27%
    16:00 +17°C° 0 mm 2 mps 735 mmHg 29%
    17:00 +18°C° 0 mm 1 mps 735 mmHg 30%
    18:00 +16°C° 0 mm 1 mps 735 mmHg 31%
    19:00 +15°C° 0 mm 1 mps 735 mmHg 33%
    20:00 +14°C° 0 mm 1 mps 736 mmHg 35%
    21:00 +14°C° 0 mm 1 mps 735 mmHg 36%
    22:00 +13°C° 0 mm 1 mps 735 mmHg 37%
    23:00 +13°C° 0 mm 1 mps 735 mmHg 38%

    Tomorrow, 21 October, Sunday

    Time Temperature Precipitation Wind Pressure Humidity
    00:00 +12°C° 0 mm 1 mps 735 mmHg 39%
    01:00 +12°C° 0 mm 1 mps 735 mmHg 39%
    02:00 +12°C° 0 mm 1 mps 735 mmHg 40%
    03:00 +11°C° 0 mm 1 mps 735 mmHg 41%
    04:00 +11°C° 0 mm 1 mps 735 mmHg 41%
    05:00 +11°C° 0 mm 1 mps 735 mmHg 42%
    06:00 +12°C° 0 mm 1 mps 735 mmHg 40%
    07:00 +12°C° 0 mm 1 mps 735 mmHg 39%
    08:00 +13°C° 0 mm 1 mps 735 mmHg 38%
    09:00 +15°C° 0 mm 1 mps 735 mmHg 34%
    10:00 +17°C° 0 mm 2 mps 735 mmHg 30%
    11:00 +18°C° 0 mm 2 mps 734 mmHg 26%
    12:00 +19°C° 0 mm 2 mps 734 mmHg 24%
    13:00 +20°C° 0 mm 2 mps 734 mmHg 23%
    14:00 +21°C° 0 mm 2 mps 734 mmHg 21%
    15:00 +21°C° 0 mm 2 mps 734 mmHg 22%
    16:00 +21°C° 0 mm 1 mps 734 mmHg 24%
    17:00 +21°C° 0 mm 1 mps 734 mmHg 26%
    18:00 +20°C° 0 mm 1 mps 734 mmHg 27%
    19:00 +19°C° 0 mm 1 mps 734 mmHg 28%
    20:00 +16°C° 0 mm 1 mps 735 mmHg 30%
    21:00 +16°C° 0 mm 1 mps 734 mmHg 31%
    22:00 +16°C° 0 mm 1 mps 734 mmHg 31%
    23:00 +15°C° 0 mm 1 mps 734 mmHg 32%

    Day after tomorrow, 22 October, Monday

    Time Temperature Precipitation Wind Pressure Humidity
    00:00 +15°C° 0 mm 1 mps 734 mmHg 33%
    01:00 +14°C° 0 mm 1 mps 734 mmHg 34%
    02:00 +14°C° 0 mm 1 mps 734 mmHg 35%
    03:00 +14°C° 0 mm 1 mps 733 mmHg 35%
    04:00 +13°C° 0 mm 1 mps 733 mmHg 35%
    05:00 +13°C° 0 mm 1 mps 733 mmHg 36%
    06:00 +14°C° 0 mm 1 mps 733 mmHg 35%
    07:00 +14°C° 0 mm 1 mps 733 mmHg 34%
    08:00 +15°C° 0 mm 1 mps 733 mmHg 33%
    09:00 +18°C° 0 mm 1 mps 733 mmHg 29%
    10:00 +19°C° 0 mm 1 mps 732 mmHg 25%
    11:00 +20°C° 0 mm 2 mps 732 mmHg 22%
    12:00 +22°C° 0 mm 1 mps 732 mmHg 20%
    13:00 +23°C° 0 mm 1 mps 731 mmHg 19%
    14:00 +24°C° 0 mm 1 mps 731 mmHg 18%
    15:00 +23°C° 0 mm 1 mps 731 mmHg 19%
    16:00 +22°C° 0 mm 1 mps 731 mmHg 21%
    17:00 +22°C° 0 mm 1 mps 731 mmHg 22%
    18:00 +21°C° 0 mm 1 mps 732 mmHg 23%
    19:00 +20°C° 0 mm 1 mps 732 mmHg 24%
    20:00 +19°C° 0 mm 1 mps 732 mmHg 25%
    21:00 +18°C° 0 mm 1 mps 732 mmHg 26%
    22:00 +18°C° 0 mm 1 mps 732 mmHg 26%
    23:00 +18°C° 0 mm 1 mps 732 mmHg 27%

    23 October, Tuesday

    Time Temperature Precipitation Wind Pressure Humidity
    00:00 +16°C° 0 mm 1 mps 732 mmHg 27%
    01:00 +16°C° 0 mm 1 mps 732 mmHg 28%
    02:00 +15°C° 0 mm 1 mps 732 mmHg 28%
    03:00 +15°C° 0 mm 1 mps 732 mmHg 29%
    04:00 +14°C° 0 mm 1 mps 732 mmHg 29%
    05:00 +14°C° 0 mm 1 mps 732 mmHg 29%
    06:00 +15°C° 0 mm 1 mps 732 mmHg 29%
    07:00 +15°C° 0 mm 1 mps 733 mmHg 28%
    08:00 +16°C° 0 mm 1 mps 733 mmHg 27%
    09:00 +18°C° 0 mm 1 mps 733 mmHg 25%
    10:00 +20°C° 0 mm 1 mps 732 mmHg 23%
    11:00 +21°C° 0 mm 2 mps 732 mmHg 20%
    12:00 +21°C° 0 mm 2 mps 732 mmHg 20%
    13:00 +23°C° 0 mm 1 mps 732 mmHg 19%
    14:00 +24°C° 0 mm 1 mps 732 mmHg 18%
    15:00 +23°C° 0 mm 1 mps 732 mmHg 20%
    16:00 +22°C° 0 mm 1 mps 732 mmHg 21%
    17:00 +22°C° 0 mm 1 mps 732 mmHg 22%
    18:00 +21°C° 0 mm 1 mps 732 mmHg 24%
    19:00 +20°C° 0 mm 1 mps 733 mmHg 26%
    20:00 +19°C° 0 mm 1 mps 733 mmHg 27%
    21:00 +18°C° 0 mm 1 mps 733 mmHg 28%
    22:00 +18°C° 0 mm 1 mps 733 mmHg 29%
    23:00 +16°C° 0 mm 1 mps 733 mmHg 29%

    24 October, Wednesday

    Time Temperature Precipitation Wind Pressure Humidity
    00:00 +16°C° 0 mm 1 mps 733 mmHg 30%
    01:00 +15°C° 0 mm 1 mps 733 mmHg 31%
    02:00 +15°C° 0 mm 1 mps 733 mmHg 31%
    03:00 +14°C° 0 mm 1 mps 732 mmHg 32%
    04:00 +14°C° 0 mm 1 mps 732 mmHg 32%
    05:00 +14°C° 0 mm 1 mps 732 mmHg 32%
    06:00 +14°C° 0 mm 1 mps 732 mmHg 31%
    07:00 +15°C° 0 mm 1 mps 732 mmHg 30%
    08:00 +15°C° 0 mm 1 mps 732 mmHg 29%
    09:00 +17°C° 0 mm 2 mps 732 mmHg 26%
    10:00 +19°C° 0 mm 2 mps 732 mmHg 23%
    11:00 +20°C° 0 mm 2 mps 731 mmHg 20%
    12:00 +21°C° 0 mm 2 mps 731 mmHg 18%
    13:00 +23°C° 0 mm 2 mps 731 mmHg 17%
    14:00 +24°C° 0 mm 2 mps 731 mmHg 16%
    15:00 +23°C° 0 mm 2 mps 731 mmHg 18%
    16:00 +23°C° 0 mm 1 mps 731 mmHg 19%
    17:00 +22°C° 0 mm 1 mps 731 mmHg 20%
    18:00 +21°C° 0 mm 1 mps 731 mmHg 21%
    19:00 +20°C° 0 mm 1 mps 731 mmHg 22%
    20:00 +19°C° 0 mm 1 mps 732 mmHg 23%
    21:00 +19°C° 0 mm 1 mps 732 mmHg 24%
    22:00 +18°C° 0 mm 1 mps 732 mmHg 24%
    23:00 +18°C° 0 mm 1 mps 732 mmHg 25%

    25 October, Thursday

    Time Temperature Precipitation Wind Pressure Humidity
    00:00 +16°C° 0 mm 1 mps 732 mmHg 25%
    01:00 +16°C° 0 mm 1 mps 732 mmHg 26%
    02:00 +15°C° 0 mm 1 mps 731 mmHg 26%
    03:00 +15°C° 0 mm 1 mps 731 mmHg 26%
    04:00 +14°C° 0 mm 1 mps 732 mmHg 27%
    05:00 +14°C° 0 mm 1 mps 732 mmHg 27%
    06:00 +15°C° 0 mm 1 mps 732 mmHg 27%
    07:00 +15°C° 0 mm 1 mps 732 mmHg 26%
    08:00 +16°C° 0 mm 1 mps 732 mmHg 25%
    09:00 +19°C° 0 mm 1 mps 732 mmHg 22%
    10:00 +19°C° 0 mm 2 mps 732 mmHg 19%
    11:00 +21°C° 0 mm 2 mps 731 mmHg 16%
    12:00 +23°C° 0 mm 2 mps 731 mmHg 15%
    13:00 +24°C° 0 mm 2 mps 731 mmHg 14%
    14:00 +25°C° 0 mm 2 mps 730 mmHg 13%
    15:00 +24°C° 0 mm 1 mps 731 mmHg 14%
    16:00 +23°C° 0 mm 1 mps 731 mmHg 16%
    17:00 +20°C° 0 mm 0 mps 731 mmHg 17%
    18:00 +21°C° 0 mm 1 mps 731 mmHg 18%
    19:00 +20°C° 0 mm 1 mps 731 mmHg 18%
    20:00 +20°C° 0 mm 1 mps 732 mmHg 19%
    21:00 +19°C° 0 mm 1 mps 732 mmHg 19%
    22:00 +19°C° 0 mm 1 mps 732 mmHg 19%
    23:00 +18°C° 0 mm 1 mps 732 mmHg 20%
    Show more